Theta_e
318 330 334 333 333 340 345 348 347 347 342 342 344 347 350 350 355 352 340 339 337 346 345 341 339 337 339 343 337 332 333 332 332 331 330 329 330 332 335 338 337 332 321 319 319 320 322 326 328
322 324 332 329 331 338 346 345 348 344 343 345 344 345 348 349 343 344 346 342 336 342 344 341 340 338 338 343 340 332 332 332 332 330 329 329 331 334 338 338 334 325 319 320 320 322 325 327 328
326 329 326 329 328 333 337 346 345 343 342 344 346 341 343 345 343 342 344 345 340 342 343 342 340 339 338 342 339 331 332 332 331 330 330 330 332 335 338 334 325 321 320 320 321 323 324 325 326
326 325 321 329 331 328 332 337 343 343 342 343 342 348 342 342 339 342 346 340 338 340 340 340 340 339 338 340 336 332 332 332 331 330 330 330 331 336 337 331 323 322 321 321 321 322 323 323 326
325 319 324 326 327 327 332 338 341 343 342 346 344 345 343 341 340 343 340 337 336 338 337 339 339 338 338 337 333 332 333 331 330 330 330 330 330 334 336 330 324 323 322 322 322 322 323 325 327
320 318 323 325 326 326 330 337 340 344 348 348 346 347 342 340 343 342 334 334 335 335 335 335 336 335 335 334 332 332 332 330 330 330 330 330 330 331 334 332 326 323 322 321 322 322 324 326 328
320 319 322 325 324 324 326 328 334 345 345 348 343 343 340 338 341 341 338 336 333 332 331 332 333 333 333 332 332 332 332 331 331 331 330 330 330 330 331 332 328 324 322 321 321 321 324 327 328
316 317 320 320 323 323 326 329 339 343 342 344 342 345 340 336 343 340 339 343 340 330 330 330 331 332 332 331 332 333 332 332 332 331 330 330 330 329 329 329 330 327 324 322 323 324 324 328 331
315 314 316 319 323 323 323 323 332 338 339 339 341 344 339 336 338 341 346 346 345 336 330 331 331 330 330 331 332 333 333 333 333 333 332 331 329 329 329 329 329 327 328 332 334 333 328 330 333
313 313 317 318 320 320 320 323 326 337 337 343 344 339 338 337 343 346 346 345 345 341 334 333 332 330 331 331 332 332 333 333 333 332 332 331 329 329 329 334 336 334 337 336 337 333 329 332 334
315 315 316 318 318 317 321 319 325 335 335 342 343 341 340 342 338 347 346 345 345 343 335 332 331 331 331 332 332 332 333 333 333 333 331 331 334 334 335 338 339 339 338 337 337 333 333 335 336
316 314 315 317 318 317 318 320 320 326 329 334 342 338 341 339 335 339 347 347 345 344 338 332 331 331 332 333 334 333 333 333 333 332 332 336 340 341 341 339 340 340 339 338 337 336 338 336 334
315 314 315 314 314 314 317 318 319 320 331 332 339 342 340 338 335 338 338 347 346 344 341 335 333 333 333 338 339 340 337 336 336 337 340 340 341 343 342 341 340 340 340 337 339 337 336 333 331
315 314 314 315 316 315 319 318 320 320 331 332 333 337 339 339 335 335 335 335 345 344 343 340 339 339 339 342 342 343 343 341 340 343 342 342 342 343 341 339 339 341 336 336 336 336 335 332 330
315 316 315 317 316 316 318 317 318 318 330 334 335 337 340 339 337 335 334 333 336 343 343 342 341 342 342 342 342 343 344 344 342 342 344 343 344 343 339 339 340 338 337 336 336 335 334 332 329
315 314 315 316 318 319 317 317 317 317 320 331 337 340 341 339 338 335 334 334 334 335 342 342 341 342 342 342 343 343 344 345 343 343 344 344 344 342 340 339 339 338 337 337 337 336 333 329 329
311 315 316 316 318 318 317 317 317 317 318 321 333 340 342 340 337 336 335 334 334 335 340 341 341 341 342 344 345 344 343 342 342 340 340 343 343 341 339 338 339 338 337 337 335 332 329 328 327
315 316 315 316 319 318 318 316 316 319 323 322 324 338 342 340 338 335 335 334 334 334 337 341 341 342 343 341 341 342 342 342 341 340 340 340 342 341 340 339 338 338 337 335 331 330 330 328 325
315 315 316 318 320 320 319 320 319 318 319 318 318 319 327 340 337 335 335 336 334 334 336 337 341 341 340 340 341 342 342 342 341 342 341 342 341 340 340 339 338 337 334 331 330 330 328 326 321
318 317 318 318 320 319 318 319 319 319 320 319 319 318 317 333 336 333 336 335 335 336 336 336 339 340 341 341 340 341 341 341 342 344 343 342 342 340 339 338 336 334 331 331 329 324 322 319 316
319 319 318 319 319 319 320 319 319 321 319 319 319 318 318 318 333 335 336 336 336 336 336 337 340 339 340 341 342 345 344 344 344 343 343 341 340 339 338 338 335 333 331 329 324 319 317 315 314
321 320 320 321 319 318 319 319 318 318 318 320 321 319 317 324 328 337 335 337 339 338 338 338 338 340 343 343 345 346 346 346 345 342 342 340 340 339 337 336 333 332 330 327 320 317 315 315 315
320 321 321 321 319 319 318 318 318 318 319 320 327 323 326 326 337 339 337 340 342 345 343 342 343 345 348 348 346 346 347 347 344 342 340 340 339 337 335 334 332 330 326 320 317 315 316 315 314
321 321 318 316 316 318 319 321 320 320 320 326 328 338 347 348 349 349 349 347 349 348 350 349 349 354 354 354 352 350 350 346 343 341 340 339 337 334 333 332 330 326 320 317 315 316 315 314 313
317 317 318 319 321 320 320 321 320 323 326 325 327 331 338 337 348 350 349 348 350 352 354 355 355 358 359 357 354 353 350 347 344 342 341 338 334 333 333 329 325 321 318 316 315 314 314 313 313
319 318 319 323 323 321 320 324 324 327 327 325 325 326 325 334 344 347 348 348 349 351 353 353 353 354 354 354 354 352 348 347 345 342 341 337 336 335 331 327 321 319 316 315 315 314 314 314 313
320 319 317 320 320 319 319 324 325 324 328 327 326 325 329 330 341 344 345 346 348 351 353 354 353 352 351 350 350 349 348 347 342 338 337 337 336 333 330 324 321 317 315 315 315 315 314 314 313
319 317 317 315 323 324 323 325 327 326 327 329 325 322 325 338 343 344 343 344 347 352 353 352 351 349 348 348 347 344 342 341 338 333 331 326 325 325 323 320 317 316 316 316 315 315 314 314 314
323 321 316 315 320 322 321 320 325 325 329 328 328 327 326 327 345 344 342 344 346 347 350 350 348 347 346 346 344 343 340 339 335 331 325 322 321 319 318 317 317 316 316 316 316 315 315 315 314
322 324 319 320 321 320 320 321 323 325 327 326 327 325 324 321 324 341 341 341 345 346 346 347 346 345 345 343 341 336 333 331 329 326 324 323 322 321 319 318 318 317 316 315 314 314 314 312 312
Wind_Speed
6 1 2 2 3 5 3 5 3 11 9 5 10 5 8 3 2 3 12 19 37 37 33 31 29 27 25 22 20 19 18 16 15 14 14 14 13 12 11 10 9 8 8 8 9 8 7 6 6
8 2 1 2 3 3 4 4 10 17 6 8 1 4 6 3 5 10 15 28 40 38 34 32 29 27 25 22 20 19 17 16 15 14 13 13 12 11 10 9 7 6 7 8 7 6 5 4 5
11 5 3 4 4 3 5 10 16 15 14 2 2 3 4 1 7 15 13 36 38 35 33 31 28 26 25 22 20 19 17 15 14 13 12 11 10 9 8 7 6 7 7 6 5 4 2 2 2
1 3 3 3 4 8 10 10 10 3 10 12 8 3 3 6 19 15 37 38 37 34 30 28 27 26 25 22 20 19 17 15 13 12 11 11 9 8 7 6 7 7 6 5 4 2 1 1 3
2 3 3 4 5 5 10 2 16 10 2 10 5 4 3 6 18 36 37 37 36 32 29 26 25 25 23 22 21 18 16 14 13 12 11 10 9 8 7 6 7 6 6 5 4 3 4 4 5
4 3 4 5 7 7 9 7 17 5 11 4 6 5 3 15 34 34 35 36 36 36 30 26 24 23 23 22 20 18 16 14 13 12 10 10 9 8 7 7 7 7 7 6 6 6 6 6 7
5 4 4 4 7 10 8 2 8 15 8 5 10 6 3 12 30 36 35 35 34 32 31 28 25 23 21 20 20 18 16 14 13 11 10 10 9 9 8 8 8 9 8 7 8 8 8 8 10
5 4 5 4 3 12 15 10 8 13 4 10 8 7 7 14 36 32 27 33 34 33 32 31 28 25 23 22 20 18 16 15 14 12 11 11 11 10 10 9 10 10 9 8 9 10 9 9 10
3 3 6 5 3 8 20 10 2 2 8 3 4 4 13 31 33 34 26 23 27 31 33 33 32 28 25 23 21 19 17 16 15 14 13 13 13 12 12 10 11 11 10 10 11 12 10 10 10
4 4 7 7 6 9 9 5 3 5 9 2 3 6 23 28 30 30 26 22 24 28 35 35 33 31 28 25 23 22 20 20 19 17 15 15 13 12 14 13 13 13 13 13 11 12 10 11 11
2 5 10 12 11 8 7 10 2 7 3 9 17 14 10 13 22 28 29 33 37 37 35 37 35 32 30 28 26 25 24 23 22 20 17 15 15 14 15 15 16 18 14 14 12 12 11 11 9
2 8 9 18 17 4 8 4 8 6 8 15 19 17 13 11 10 25 30 31 31 33 38 37 36 35 33 30 28 28 27 26 25 23 20 19 17 15 15 18 16 18 16 14 12 11 8 6 8
5 6 7 12 12 9 6 6 6 7 3 7 16 14 16 12 16 26 32 36 37 35 37 36 37 36 34 32 32 29 29 27 25 23 22 21 18 16 14 16 16 17 13 10 11 9 8 9 12
3 6 9 9 8 5 3 7 4 11 7 7 16 14 14 16 20 24 25 30 35 39 40 39 38 37 36 36 32 31 30 27 26 24 24 22 21 19 13 12 14 13 13 11 11 9 9 11 12
6 7 11 10 6 8 4 11 9 11 9 10 12 13 16 17 22 28 34 31 42 44 44 44 40 39 38 37 34 32 32 30 26 26 25 25 23 20 18 11 13 15 12 10 8 8 12 15 12
7 4 6 9 5 13 9 15 16 13 7 13 14 14 12 17 18 27 33 37 41 42 45 46 44 43 39 37 35 32 30 30 29 26 25 27 25 22 18 14 13 12 11 12 12 12 14 12 10
6 4 7 11 7 6 5 11 14 12 5 8 18 17 20 17 17 26 36 41 45 45 45 46 45 45 41 35 30 26 27 22 19 20 20 26 28 23 19 18 15 13 11 10 10 11 11 10 12
5 4 5 7 8 8 5 8 9 8 4 8 4 17 18 19 23 27 37 41 45 45 46 47 45 46 44 35 30 26 24 20 19 17 19 22 27 24 20 18 14 11 9 9 10 9 7 10 9
5 5 7 8 6 6 2 5 9 9 4 8 6 8 14 19 25 25 35 38 41 42 45 44 45 43 40 33 30 26 28 23 20 17 18 25 26 23 20 16 12 10 8 6 6 7 9 9 8
9 8 7 7 9 6 8 7 7 6 6 7 10 11 9 14 11 9 23 31 39 43 46 45 44 41 39 36 33 30 28 24 22 21 21 26 25 22 20 15 11 10 7 7 6 6 5 5 4
4 2 5 5 7 5 6 9 8 20 5 9 11 13 9 12 16 11 14 30 31 36 42 44 43 41 40 38 32 24 24 19 18 22 25 25 23 20 16 11 8 7 7 5 5 7 6 5 6
2 6 4 7 6 5 5 6 7 9 11 14 17 14 8 3 7 16 18 19 30 31 32 37 38 37 36 34 32 31 29 20 26 32 30 26 21 15 12 9 8 8 8 7 7 4 5 4 4
7 4 2 1 4 4 7 3 8 8 9 11 9 3 5 7 10 14 16 14 16 20 27 30 31 27 29 30 33 33 29 28 20 28 26 22 18 16 13 9 9 9 9 7 6 6 4 4 5
1 5 8 5 3 4 4 2 7 6 7 8 11 10 10 9 10 10 13 25 24 24 25 28 30 27 26 23 26 28 27 21 24 28 25 22 19 15 9 8 10 9 8 7 5 5 7 9 7
9 7 4 5 5 5 5 2 7 13 11 15 13 9 3 7 9 14 12 13 24 29 29 26 24 20 20 21 17 15 20 22 26 29 26 23 22 16 11 13 12 10 7 6 5 6 8 10 10
4 7 5 4 3 6 6 2 6 6 7 9 8 16 13 10 7 9 13 16 20 25 22 21 21 18 15 12 12 12 16 18 21 23 24 23 16 12 15 13 10 7 6 6 6 9 10 12 14
4 2 6 4 0 3 3 6 7 11 13 15 12 12 10 9 7 9 3 11 21 21 22 24 22 19 16 15 11 11 11 12 16 18 15 12 13 12 12 11 8 7 7 7 9 13 15 15 16
3 3 3 3 1 2 4 5 4 7 8 6 8 7 6 4 6 4 8 9 15 22 24 27 27 24 19 16 15 14 12 12 13 10 9 8 10 10 9 8 6 7 8 9 14 18 19 19 20
8 6 4 3 5 5 2 6 6 4 1 2 3 3 6 3 6 8 3 13 20 22 28 31 26 22 20 18 16 14 13 13 12 10 10 9 8 6 5 5 5 8 12 16 19 21 22 20 20
5 4 4 4 8 3 4 6 5 3 2 5 2 6 4 8 9 8 7 17 18 20 24 27 21 22 21 19 17 16 14 12 11 9 8 6 4 3 2 3 7 11 11 12 14 14 14 16 17
Wind_Direction
4 11 74 79 76 69 288 255 281 254 165 217 289 127 106 76 122 188 151 156 160 156 160 163 158 155 152 149 145 143 137 132 129 125 125 122 120 120 121 119 118 117 119 119 117 109 99 84 68
347 178 94 51 86 68 257 240 220 234 160 207 50 43 38 45 73 121 118 165 160 156 159 162 162 158 156 152 150 148 142 139 136 133 131 127 127 127 128 126 125 132 135 134 129 122 109 92 77
345 177 112 150 99 179 257 223 221 241 254 304 10 53 85 247 105 142 173 159 156 156 159 161 164 160 158 157 155 152 149 146 142 138 136 135 137 137 139 142 148 154 152 149 146 140 119 69 38
331 36 7 93 260 248 240 226 214 17 290 193 144 100 68 249 152 156 152 158 157 156 160 161 163 162 161 161 159 157 155 152 148 146 148 148 150 151 158 164 168 168 170 173 176 183 236 309 324
63 61 23 331 244 266 301 139 192 186 358 119 139 94 55 28 143 146 155 161 158 158 161 162 163 164 163 163 163 162 160 157 157 158 162 162 164 168 177 183 186 191 192 204 214 235 259 287 299
11 93 17 318 306 294 265 130 175 141 142 172 87 118 103 129 131 149 158 164 165 159 163 163 166 166 167 167 168 168 167 167 170 170 171 177 178 186 193 204 206 208 212 221 236 251 267 282 294
129 93 233 254 287 303 300 19 142 158 163 136 141 124 176 153 157 157 161 164 161 163 165 168 170 171 172 173 175 176 175 177 181 182 182 193 195 200 211 215 221 224 227 238 252 262 272 287 302
117 99 297 277 349 290 305 345 128 128 198 146 171 159 192 173 163 160 160 163 164 166 172 172 173 176 178 181 184 184 185 188 192 194 198 204 208 211 219 224 229 232 239 249 262 269 275 293 301
101 76 271 253 358 275 309 335 67 18 115 289 216 127 147 156 155 149 145 157 163 170 178 177 178 180 183 186 189 192 195 201 204 206 208 212 217 218 225 229 235 237 240 255 265 273 280 289 296
111 130 248 202 218 250 277 290 24 170 129 29 86 88 155 159 139 144 153 164 172 177 185 185 184 184 186 189 195 199 202 207 212 215 214 218 221 223 226 234 239 242 249 262 272 275 277 276 295
221 208 254 268 251 234 261 299 25 151 203 187 165 166 167 156 147 154 168 174 181 188 187 191 190 189 190 193 198 204 207 212 215 217 218 220 220 219 232 240 242 243 249 253 262 266 268 288 289
245 250 246 274 274 289 253 250 307 195 239 168 173 173 167 156 174 170 173 183 183 186 191 192 194 194 197 197 201 204 210 214 219 218 217 211 214 220 236 241 243 239 241 255 256 264 277 271 294
196 272 294 271 278 240 279 288 257 277 181 111 171 170 169 167 179 182 178 185 187 187 191 193 195 198 200 198 204 206 212 215 212 214 210 208 218 225 232 233 236 239 236 245 234 234 242 279 308
272 277 273 277 271 268 284 285 50 292 153 155 166 180 182 174 183 188 190 182 188 192 192 192 193 197 198 201 208 210 216 217 215 217 217 215 219 222 231 239 229 204 206 213 217 236 267 294 306
300 342 319 316 318 289 76 309 282 260 167 182 185 205 188 188 188 194 196 186 188 195 195 195 196 200 203 206 213 215 219 222 221 224 226 222 222 223 222 216 200 208 216 222 232 264 290 300 300
352 35 10 289 319 273 119 270 268 274 166 192 205 206 202 205 205 200 202 199 192 193 194 196 197 202 204 208 213 212 218 228 230 229 232 223 214 215 216 215 206 214 228 246 259 277 293 294 298
353 275 295 309 297 287 146 240 261 264 265 249 202 201 210 214 210 206 201 200 194 194 191 194 196 201 199 198 192 195 204 203 202 212 217 212 211 213 219 224 226 233 242 254 272 289 293 292 301
243 285 293 276 299 12 12 276 301 297 262 259 224 211 208 204 208 206 199 198 196 192 192 192 194 197 196 201 200 198 201 206 208 219 226 213 206 208 215 221 225 229 240 266 281 289 288 294 296
239 256 266 267 286 15 286 272 284 276 259 304 260 239 202 206 211 200 194 193 194 194 194 195 196 198 200 200 199 203 211 214 220 224 223 205 203 206 212 214 219 229 248 268 276 280 287 285 308
253 257 284 292 322 1 326 300 273 272 277 275 279 279 211 216 205 194 185 182 187 188 194 197 200 200 203 205 207 209 213 217 220 223 205 202 206 203 205 218 223 224 237 259 276 293 291 291 326
309 276 296 295 323 355 357 328 335 310 324 304 286 259 242 183 199 180 179 191 188 189 191 196 200 201 204 207 207 204 207 216 212 203 195 190 204 205 205 225 220 227 243 257 271 293 297 307 310
268 270 329 331 25 312 56 299 301 287 305 298 290 261 254 173 180 181 186 189 192 195 194 195 201 205 205 206 205 198 198 197 206 190 194 191 203 215 209 193 213 223 249 270 290 280 291 292 307
231 260 329 311 354 17 357 36 272 303 315 304 293 162 146 177 173 183 187 170 173 184 192 201 206 208 209 209 212 212 214 215 197 186 185 195 201 202 200 211 213 223 246 274 277 280 265 279 287
43 35 20 39 49 24 252 144 290 330 281 308 310 93 122 125 121 104 137 154 166 186 190 200 203 205 206 197 209 214 210 191 182 186 189 191 191 193 204 208 211 232 263 280 278 278 289 297 293
62 57 352 355 7 222 306 30 259 302 28 57 15 339 299 124 134 133 146 147 156 166 176 180 183 177 183 190 190 201 213 207 191 198 203 190 185 183 200 213 223 241 266 283 276 287 288 292 282
184 145 149 244 260 274 323 297 287 290 306 25 21 29 26 335 141 164 169 168 167 180 183 180 167 155 167 190 207 204 211 206 199 205 204 198 199 208 202 212 224 248 282 274 270 275 277 281 282
269 219 182 139 107 32 275 311 327 356 12 8 2 40 3 31 305 192 152 161 177 169 170 167 163 163 178 186 190 191 208 198 175 173 185 203 211 208 204 215 235 264 270 274 277 271 268 273 281
62 253 5 12 251 290 301 300 241 341 336 19 357 7 8 16 125 237 199 160 151 173 178 177 176 180 177 177 167 152 146 158 155 145 151 157 159 170 187 213 243 275 280 280 267 264 269 268 273
353 337 353 127 144 176 239 275 226 242 205 22 18 345 24 338 160 231 207 166 176 185 187 183 182 173 172 166 158 156 142 147 153 160 159 159 152 161 186 225 265 280 279 277 272 274 277 276 277
178 70 76 69 304 255 158 264 253 256 145 280 288 323 343 291 297 186 202 191 186 181 177 182 176 173 169 160 155 143 139 147 155 165 168 170 184 192 253 264 281 288 296 298 296 295 287 279 287